Regional Weather Roundup
Issued by NWS Mobile, AL

Home | Current Version | Previous Version | Text Only | Print | Product List | Glossary On
Versions: 1 2 3 4 5 6 7 8 9 10 11 12 13 14 15 16 17 18 19 20 21 22 23 24 25 26 27 28 29 30 31 32 33 34 35 36 37 38 39 40 41 42 43 44 45 46 47 48 49 50
000
ASUS44 KMOB 211610
RWRMOB
REGIONAL WEATHER ROUNDUP
NATIONAL WEATHER SERVICE MOBILE AL
1100 AM CDT SUN SEP 21 2014

NOTE: "FAIR" INDICATES FEW OR NO CLOUDS BELOW 12,000 FEET WITH NO
      SIGNIFICANT WEATHER AND/OR OBSTRUCTIONS TO VISIBILITY.

  * THESE STATIONS ARE PART OF THE UNIVERSITY OF SOUTH ALABAMA
    MESONET AND ARE NOT UNDER NWS OR FAA QUALITY CONTROL.

ALZ061>064-211700-
COASTAL ALABAMA

CITY           SKY/WX    TMP DP  RH WIND       PRES   REMARKS
MOBILE REG APT MOSUNNY   83  68  60 E8        30.06R
BROOKLEY FIELD SUNNY     81  70  69 N3        30.06S
USA CAMPUS*      N/A     82  68  61 E6        30.04R
DOG RIVER*     NOT AVBL


CITY           SKY/WX    TMP DP  RH WIND       PRES   REMARKS
MOUNT VERNON*    N/A     81  66  61 E3        30.06S
SARALAND*      NOT AVBL
BAY MINETTE*   NOT AVBL
LOXLEY*          N/A     66  66 100 NE8       30.05S
ROBERTSDALE*     N/A     79  66  65 SE3       30.04S
FAIRHOPE*        N/A     82  68  61 E8        30.04R
ELBERTA*         N/A     82  70  65 E5        30.03F
FOLEY*         NOT AVBL
GRAND BAY*       N/A     82  68  61 NE5       30.03R
DAUPHIN ISLND* NOT AVBL
BON SCOUR NWR* NOT AVBL
GULF SHORES    SUNNY     84  69  60 E12G17    30.04S

$$

ALZ051>060-211700-
INTERIOR SOUTHWEST AND SOUTH CENTRAL ALABAMA

CITY           SKY/WX    TMP DP  RH WIND       PRES   REMARKS
GREENVILLE     SUNNY     84  64  50 NE5       30.07S
EVERGREEN      SUNNY     84  64  50 E6        30.07S
CASTLEBERRY*   NOT AVBL
ATMORE*          N/A     82  66  57 E5        30.07S
DIXIE*         NOT AVBL
ANDALUSIA/OPP  SUNNY     88  64  44 VRB5      30.06F
ANDALUSIA*     NOT AVBL
FLORALA APT    SUNNY     82  64  54 VRB5      30.08S
FLORALA*         N/A     81  63  54 SE7       30.03S

$$

FLZ001>006-211700-
WESTERN FLORIDA PANHANDLE

CITY           SKY/WX    TMP DP  RH WIND       PRES   REMARKS
PENSACOLA      SUNNY     81  66  60 E10       30.04F
NAS PENSACOLA  SUNNY     84  69  60 E13       30.03F
MILTON         SUNNY     83  65  54 E8        30.05F
WHTNG S FIELD  SUNNY     84  65  52 E9        30.06S


CITY           SKY/WX    TMP DP  RH WIND       PRES   REMARKS
WALNUT HILL*   NOT AVBL
JAY*           NOT AVBL
DUKE FIELD     SUNNY     83  71  65 SE7       30.06S
CRESTVIEW      SUNNY     85  65  51 E8        30.07S
VALPARAISO     SUNNY     83  66  56 SE9       30.05F
DESTIN         SUNNY     83  68  60 E7        30.05S

$$

MSZ076-079-211700-
INTERIOR SOUTHEAST MISSISSIPPI

CITY           SKY/WX    TMP DP  RH WIND       PRES   REMARKS
LEAKESVILLE*     N/A     81  64  57 CALM      30.07S
AGRICOLA*      NOT AVBL

$$

MARINE OBSERVATIONS

STATION/POSITION TIME  TEMP    WIND        PRES    WAVE
                       AIR SEA DIR/SP/G            HT/PER
                 (UTC) (F)     (DEG/KT/KT) (MB)    (FT/S)
PASCAGOULA       1600   82      70/  9/ 11 1017.0R
PETIT BOIS ISLND 1600   81      70/ 10/ 12 1017.4R
GRAND BAY        1500   78      60/  9     1018.0S
KATRINA CUT      1500   80      70/ 13     1017.6S
CEDAR POINT      1500   77      70/  9     1016.9R
E DAUPHIN ISLAND 1500   78      70/ 11/ 13 1017.0R
MIDDLE BAY LIGHT 1500   80      90/  9     1016.9R
USCG MOBILE BAY  1600      83              1016.6S
STATE DOCKS      1600   81 85              1017.3F
MEAHER PARK      1500   81      40/  4     1016.9S
WEEKS BAY        1500   80                   N/A
FORT MORGAN      1600   83     110/ 13/ 16 1016.5F
12 S ORANGE BCH  1600   81 85   90/ 16/ 17 1016.8S   3/ 5
PENSACOLA BAY    1600   86 85  120/  1/  5 1017.5S
64 S DAUPHIN ISL 1533   81 84  100/ 19/ 23 1016.5R   4/ 5
67 S FORT MORGAN 1500   84     VRB 19      1015.9R

$$

SELECTED LOCATIONS ACROSS THE REGION

CITY           SKY/WX    TMP DP  RH WIND       PRES   REMARKS
NEW ORLEANS    MOSUNNY   85  69  58 NE10      30.04R
GULFPORT       SUNNY     84  68  58 CALM      30.04S
PASCAGOULA AP  SUNNY     84  67  56 NE8       30.04R
PASCAGOULA*      N/A     84  68  58 E3        30.03S
HATTIESBURG    SUNNY     82  67  60 VRB3      30.07F
LAUREL         SUNNY    N/A N/A N/A CALM      30.09S
MERIDIAN       SUNNY     82  64  54 VRB3      30.08S
JACKSON        SUNNY     84  65  52 CALM      30.08S
MONTGOMERY     SUNNY     85  64  49 CALM      30.07F
TROY           SUNNY     82  63  52 S3        30.08S
KINSTON*       NOT AVBL
GENEVA*        NOT AVBL
ASHFORD*       NOT AVBL
DOTHAN         SUNNY     81  62  52 CALM      30.10F
PANAMA CITY    SUNNY     83  64  52 NE9       30.04F

$$




USA.gov is the U.S. government's official web portal to all federal, state and local government web resources and services.